Location: Gleizolles
(44.4833°N, 6.7667°E)
Time: 01:15:24
(UTC+00:00)

S-56A Canister/Altair - Pass Details

Date: 30 June 2024
Orbit: 638 x 2488 km, 38.9° (Epoch: 24 July)

Event Time Altitude Azimuth Distance (km) Brightness Sun altitude
Rises 01:40:39 0° 275° (W) 5,242 11.5 -16.7°
Reaches altitude 10° 01:45:42 10° 257° (WSW) 4,562 11.1 -16.2°
Enters shadow 01:51:07 16° 232° (SW) 4,323 10.7 -15.7°
Maximum altitude 01:52:39 17° 224° (SW) 4,357 - -15.6°
Drops below altitude 10° 02:00:20 10° 192° (SSW) 5,096 - -14.8°
Exits shadow 02:05:41 - 177° (S) 5,968 11.6 -14.3°
Sets 02:06:40 0° 174° (S) 6,146 11.7 -14.2°
